Find Starlink 6166

NORAD ID: 56383 Int'l Des: 2023-061 Owner: SPXS Country: US Constellation: starlink operational
LEOCIRCULAR

現在のビュー

3D地球を読み込み中...

About Starlink 6166

Starlink 6166 (NORAD 56383) is a starlink constellation satellite (v1.5) launched May 4, 2023 by SPXS of US. It operates in LEO, CIRCULAR orbit with a mass of 305.00 kg.

次回通過

Passes for default location (London). Set your location on the main map for personalized predictions.

高度履歴

Loading altitude history...

軌道要素

1 56383U 23061K 26237.29606038 .00001018 00000-0 46533-4 0 9996
2 56383 43.0065 325.8860 0001715 266.7828 93.2828 15.27579396182535
Epoch: Aug 25, 2026 • Age: 23 hours

現在のステータス

高度 484.6 km
遠地点 / 近地点 N/A
速度 7.62 km/s
衛星直下点 -11.01°S, 89.03°E
打ち上げ日 May 4, 2023
運用期間 3.3 years
タイプ internet

技術仕様

分類 Payload
質量 305.00 kg
乾燥質量 290.00 kg
総質量 305.00 kg
長さ 0.20 m
直径 2.80 m
スパン 9.00 m
形状 Box + pan
製造者 SPXS
バスタイプ Starlink
フェーズステータス In Orbit
所有者/国 SPXS/US

Most Searched